Location: Shepherdstown, WV
(39.4326°N, 77.8042°W)
Time: 15:53:33
(UTC-04:00)

Tiros 1 despin weight - Pass Details

Date: 07 August 2021
Orbit: 593 x 641 km, 48.2° (Epoch: 18 September)

Event Time Altitude Azimuth Distance (km) Brightness Sun altitude
Rises 16:42:42 0° 301° (WNW) 2,941 ? 39.7°
Reaches altitude 10° 16:45:06 10° 308° (NW) 2,032 ? 39.3°
Maximum altitude 16:49:39 48° 23° (NNE) 835 ? 38.4°
Drops below altitude 10° 16:54:10 10° 98° (E) 2,022 ? 37.6°
Sets 16:56:34 0° 104° (ESE) 2,925 ? 37.1°
